Weather in Hrádek nad Nisou

Czech Republic     50°51′13″N   14°50′38″E
temp.,
°C
wind,
m/s
gust,
m/s
humid.,
%
clouds,
%
prec.,
mm/h
press.,
hPa
HPBL,
m
21 april, wed
wed2123:00+6w118750 0.0 101510
02:00+6wsw119122 0.1 101510
05:00+4wsw11935 0.0 101410
08:00+8w128615 0.0 1015162
11:00+13nw346019 0.4 10141260
14:00+15nw464368 0.7 10132195
17:00+13nw355065 0.0 10121362
20:00+8nw22712 0.0 101333
22 april, thu
thu2223:00+6nw228041 0.0 101533
02:00+6nw4880100 0.0 1017733
05:00+1nw3778100 0.0 1018387
08:00+2nw4107024 0.0 1020813
11:00+6wnw694974 0.0 10191704
14:00+9nw61042100 0.1 10192337
17:00+8nw6114731 0.1 10192017
20:00+4wnw4107899 0.5 1021770
23 april, fri
fri2323:00+3wnw268892 0.1 1022200
02:00+1wnw389561 0.3 1023348
05:00+1wnw389581 0.0 1024442
08:00+3wnw5107999 0.1 10241000
11:00+3wnw51079100 0.1 10251040
14:00+6nw5106394 0.1 10251486
17:00+7nw596997 0.3 10241304
20:00+4wnw4108546 0.5 1025677
24 april, sat
sat2423:00+3nw3993100 0.1 1026654
02:00+2wnw239671 0.2 102673
05:00+2wnw139458 0.0 1026166
08:00+3wnw3685100 0.0 1027650
11:00+5nw466553 0.0 10261075
14:00+9nw674984 0.1 10241842
17:00+7nw576060 0.1 10251446
20:00+4nw367759 0.1 1025185
25 april, sun
sun2523:00+2nnw229022 0.1 102617
02:000nnw229412 0.1 102833
05:00−2n229428 0.0 102823
08:00+1nnw246397 0.0 1029400
11:00+6nne34381 0.0 10281326
14:00+9nne34374 0.0 10261557
17:00+9nne34393 0.0 10251445
20:00+4ne22611 0.0 102420